Regional Weather Roundup
Issued by NWS Cleveland, OH

Home | Current Version | Previous Version | Text Only | Print | Product List | Glossary Off
Versions: 1 2 3 4 5 6 7 8 9 10 11 12 13 14 15 16 17 18 19 20 21 22 23 24 25 26 27 28 29 30 31 32 33 34 35 36 37 38 39 40 41 42 43 44 45 46 47 48 49 50

000
ASUS41 KCLE 010310
RWRCLE
OHIO REGIONAL WEATHER ROUNDUP
NATIONAL WEATHER SERVICE CLEVELAND, OH
1100 PM EDT MON AUG 31 2015

NOTE: "FAIR" INDICATES FEW OR NO CLOUDS BELOW 12,000 FEET WITH NO
SIGNIFICANT WEATHER AND/OR OBSTRUCTIONS TO VISIBILITY.

OHZ001>008-015>018-024>027-034-035-043-044-010400-
   NORTHWEST OHIO

CITY           SKY/WX    TMP DP  RH WIND       PRES   REMARKS
DEFIANCE       MOCLDY    74  70  87 CALM      30.08R
FINDLAY        CLEAR     75  69  81 S3        30.08R
TOLEDO EXPRESS CLEAR     71  70  96 CALM      30.07R FOG
TOLEDO EXEC    CLEAR     74  67  78 CALM      30.08R
LIMA           MOCLDY    73  69  87 CALM      30.10R
$$

OHZ009>014-019>023-028>033-038-089-010400-
   NORTHEAST OHIO

CITY           SKY/WX    TMP DP  RH WIND       PRES   REMARKS
CLE-HOPKINS    PTCLDY    72  67  84 S5        30.10S
CLE-LAKEFRONT  CLEAR     77  66  68 S5        30.06S
CUY CO. ARPT   PTCLDY    72  68  88 CALM      30.09R
LORAIN-ELYRIA  CLEAR     70  67  90 S3        30.09R FOG
ASHTABULA      CLEAR     64  64 100 CALM      30.10R FOG
AKRON-CANTON   CLEAR     75  66  73 CALM      30.11R
WOOSTER        PTCLDY    68  66  93 CALM      30.11R FOG
MANSFIELD      CLEAR     70  67  90 S6        30.12R
YOUNGSTOWN     CLEAR     67  64  90 E3        30.10S
$$

OHZ042-051>053-060>062-070>072-077>081-010400-
  SOUTHWEST OHIO

CITY           SKY/WX    TMP DP  RH WIND       PRES   REMARKS
CINC-COVINGTON PTCLDY    73  67  81 CALM      30.11S
CINC-LUNKEN    PTCLDY    70  69  97 CALM      30.10S
HAMILTON       PTCLDY    71  69  93 CALM      30.11R
DAYTON         PTCLDY    74  69  85 S6        30.12S
WRIGHT-PAT AFB CLEAR     73  69  89 SE3       30.11R
DAYTON GENERAL MOCLDY    74  67  78 CALM      30.11R
WILMINGTON     CLEAR     68  65  90 CALM      30.12R
$$

OHZ036-037-039>041-045>050-054>059-063>069-073>076-082>088-010400-
  CENTRAL AND SOUTHEAST OHIO

CITY           SKY/WX    TMP DP  RH WIND       PRES   REMARKS
COLUMBUS       MOCLDY    75  67  76 S5        30.10R
OSU AIRPORT    PTCLDY    76  69  79 SW5       30.10S
BOLTON FIELD   CLEAR     70  68  94 SW3       30.11S
RICKENBACK AFB CLEAR     70  68  92 S3        30.10R
NEWARK         CLEAR     69  67  93 CALM      30.10S FOG
MARION         CLEAR     73  68  84 SW5       30.10S
LANCASTER      PTCLDY    67  64  90 CALM      30.11S
ZANESVILLE     CLEAR     71  65  81 CALM      30.11R
NEW PHILLY     PTCLDY    70  68  93 CALM      30.11R
$$



USA.gov is the U.S. government's official web portal to all federal, state and local government web resources and services.